Weather in Lebedin

Ukraine / Cherkassi District     48°57′51″N   31°31′21″E
temp.,
°C
wind,
m/s
gust,
m/s
humid.,
%
clouds,
%
prec.,
mm/h
press.,
hPa
HPBL,
m
6 may, thu
thu600:00+11ssw71456100 0.1 1011655
03:00+9s7146999 1.1 1009516
06:00+10s7166997 0.0 1008544
09:00+13ssw9146220 0.1 1009845
12:00+15wsw7964100 0.0 10091361
15:00+10nw4883100 0.4 1012426
18:00+13nw366446 0.3 1012971
21:00+9wsw11706 0.3 101410
7 may, fri
fri700:00+7nnw11743 0.0 101510
03:00+6s227164 0.0 101511
06:00+6s337863 0.0 101643
09:00+12s4665100 0.0 1016423
12:00+16s6846100 0.0 10141511
15:00+13s61170100 0.2 1013603
18:00+13sse41268100 0.0 1010484
21:00+12s71489100 2.6 1010537
8 may, sat
sat800:00+12s81790100 0.6 1008541
03:00+11ssw61395100 0.6 1008436
06:00+11w4897100 2.1 1008484
09:00+8nw71289100 5.4 1012568
12:00+10nw7966100 0.3 10141101
15:00+12nw7851100 0.3 10141767
18:00+11nw6958100 0.0 10161654
21:00+7nw61167100 0.0 1018611
9 may, sun
sun900:00+4nw411800 0.0 1019297
03:00+3nw412810 0.0 1021270
06:00+3nw39840 0.0 1022219
09:00+9nw58635 0.0 1023790
12:00+12nw685076 0.0 10242000
15:00+13nnw674692 0.0 10241970
18:00+12nnw465356 0.0 10251376
21:00+8nw22684 0.0 102710
10 may, mon
mon1000:00+7nw11694 0.0 102810
03:00+6ne11735 0.0 102810
06:00+5nne00750 0.0 102910
09:00+11ene22600 0.0 1029473
12:00+14ne33440 0.0 10281413
15:00+16ne44370 0.0 10271719
18:00+15ne44430 0.0 10251307
21:00+10ne33640 0.0 102524